www.pogodaiklimat.ru

Погода и климат >> Архив погоды >> Кувейт >> Экспериментальная ферма


ПОГОДА на Экспериментальной ферме

  • Прогноз погоды на Экспериментальной ферме
  • Монитор погоды на Экспериментальной ферме

АРХИВ ПОГОДЫ на Экспериментальной ферме

Время (UTC), дата Ветер
(напр.,м/с)
 
Видим.   Явления Облачность Т
(С)
Тd
(С)
f
(%)
Тe
(С)
Тes
(С)
Комфортность P
(гПа)
Po
(гПа)
Тmin
(С)
Tmax
(С)
R
(мм)
R24
(мм)
S
(см)
06 17.02 ЮЗ 1-2
{3}
н/о н/о +16.3 +4.3 45 +17 +17 1022.5 1020.0 149
09 17.02 СЗ 2-6
{6}
н/о н/о +21.1 +2.2 29 +21 +21 комфорт 1021.1 1018.6 320
12 17.02 С 2-6
{8}
н/о н/о +22.7 +2.1 26 +22 +22 комфорт 1018.6 1016.1 231
15 17.02 СЗ 2-5
{7}
н/о н/о +19.1 +1.7 31 +20 +20 1018.4 1015.9 4
18 17.02 СЗ 1-3
{7}
н/о н/о +16.7 +4.9 46 +18 +18 1019.8 1017.3
21 17.02 СЗ 1-2
{5}
н/о н/о +13.6 +7.0 64 +15 +15 1019.3 1016.8 +8.0 +23.0
00 18.02 ЮЗ 1-1
{5}
н/о н/о +11.1 +7.0 76 +12 +12 1018.6 1016.0
03 18.02 З 1-1
{1}
н/о н/о +9.8 +6.6 80 +10 +10 1018.6 1016.0
06 18.02 ЮЗ 1-2
{2}
н/о н/о +17.8 +6.9 49 +19 +19 1019.2 1016.7 151
09 18.02 СЗ 3-5
{6}
н/о н/о +20.5 +2.5 30 +21 +21 комфорт 1017.7 1015.2 320
15 18.02 С 2-3
{6}
н/о н/о +17.6 +1.5 34 +18 +18 1014.0 1011.5 2
18 18.02 СЗ 1-2
{6}
н/о н/о +16.0 +4.8 47 +17 +17 1015.0 1012.5
21 18.02 СВ 1-2
{4}
н/о н/о +14.2 +5.3 55 +15 +15 1014.2 1011.7 +9.5 +22.6
00 19.02 СВ 1-2
{4}
н/о н/о +13.2 +6.7 65 +14 +14 1013.9 1011.4
03 19.02 С 1-5
{5}
н/о н/о +14.3 +8.7 69 +15 +15 1014.2 1011.7
06 19.02 С 2-6
{7}
н/о н/о +15.7 +8.0 60 +16 +16 1015.8 1013.3 67
09 19.02 С 3-7
{7}
н/о н/о +19.5 +7.1 45 +20 +20 1016.0 1013.5 192
12 19.02 СЗ 4-9
{9}
н/о н/о +19.8 +2.5 32 +20 +20 1015.3 1012.8 237
15 19.02 СЗ 2-7
{11}
н/о н/о +17.0 +3.3 40 +17 +17 1016.8 1014.3 5
18 19.02 СЗ 2-6
{11}
н/о н/о +15.6 +4.4 47 +16 +16 1019.0 1016.5
21 19.02 СЗ 2-4
{5}
н/о н/о +14.6 +6.1 57 +15 +15 1019.4 1016.9 +12.3 +20.9
00 20.02 З 2-3
{5}
н/о н/о +12.7 +3.9 55 +12 +12 1019.3 1016.7
03 20.02 Ю 1-2
{3}
н/о н/о +8.7 +4.4 74 +9 +9 1020.2 1017.6
06 20.02 З 2-4
{5}
н/о н/о +16.4 +3.5 42 +17 +17 1021.9 1019.4 159
09 20.02 СЗ 3-5
{5}
н/о н/о +20.7 +3.1 31 +22 +22 комфорт 1021.2 1018.7 327
12 20.02 СЗ 3-6
{7}
н/о н/о +21.7 +1.7 27 +21 +21 комфорт 1019.6 1017.1 236
15 20.02 СЗ 2-4
{6}
н/о н/о +17.8 +3.0 37 +19 +19 1019.8 1017.3 5
18 20.02 СЗ 2-3
{6}
н/о н/о +16.1 +4.1 45 +17 +17 1021.3 1018.8
21 20.02 штиль 0
{2}
н/о н/о +11.9 +6.3 69 +12 +12 1021.3 1018.7 +8.7 +22.4
00 21.02 Ю 1-1
{2}
н/о н/о +10.5 +5.1 69 +11 +11 1021.2 1018.6
03 21.02 Ю 1-2
{2}
н/о н/о +9.3 +4.6 72 +10 +10 1021.8 1019.2
06 21.02 ЮЗ 1-3
{3}
н/о н/о +17.7 +2.2 35 +19 +19 1023.6 1021.1 160
09 21.02 Ю 2-4
{5}
н/о н/о +21.9 -0.3 23 +21 +21 комфорт 1022.0 1019.5 327
12 21.02 В 2-5
{5}
н/о н/о +22.1 +0.8 24 +22 +22 комфорт 1020.1 1017.6 229
15 21.02 В 2-4
{6}
н/о н/о +17.8 +4.2 40 +19 +19 1020.5 1018.0 5
18 21.02 ЮВ 2-4
{6}
н/о н/о +16.5 +8.9 61 +17 +17 1021.8 1019.3
21 21.02 Ю 1-3
{4}
н/о н/о +14.5 +10.6 77 +15 +15 1021.2 1018.7 +8.9 +23.1
00 22.02 Ю 1-2
{4}
н/о н/о +11.1 +9.3 89 +12 +12 1019.9 1017.3
03 22.02 Ю 1-1
{2}
н/о н/о +10.3 +7.5 83 +11 +11 1020.2 1017.6
06 22.02 Ю 2-4
{6}
н/о н/о +17.5 +9.0 57 +18 +18 1022.0 1019.5 135
09 22.02 В 2-4
{6}
н/о н/о +21.5 +2.7 29 +21 +21 комфорт 1019.4 1016.9 252
12 22.02 В 2-4
{6}
н/о н/о +20.0 +1.8 30 +21 +21 комфорт 1017.7 1015.2 98
15 22.02 ЮВ 2-5
{6}
н/о н/о +17.5 +8.7 56 +18 +18 1017.7 1015.2 3
18 22.02 ЮВ 2-5
{7}
н/о н/о +16.5 +8.7 60 +17 +17 1018.9 1016.4
21 22.02 ЮВ 2-4
{5}
н/о н/о +16.1 +9.6 65 +16 +16 1018.2 1015.7 +10.3 +23.0
00 23.02 СВ 1-2
{5}
н/о н/о +14.0 +11.0 82 +15 +15 1017.6 1015.1
03 23.02 В 1-2
{4}
н/о н/о +14.4 +12.2 87 +15 +15 1018.2 1015.7
06 23.02 В 3-8
{8}
н/о н/о +19.0 +12.1 64 +20 +20 1018.8 1016.3 124
09 23.02 ЮВ 4-7
{11}
н/о н/о +21.2 +10.6 51 +23 +23 комфорт 1017.7 1015.2 300
12 23.02 В 3-8
{11}
н/о н/о +21.7 +10.5 49 +23 +23 комфорт 1015.8 1013.3 224
15 23.02 В 2-5
{8}
н/о н/о +18.4 +12.4 68 +20 +20 1016.1 1013.6 5
18 23.02 В 1-3
{8}
н/о н/о +17.8 +13.7 77 +19 +19 1017.2 1014.7
21 23.02 ЮВ 1-2
{5}
н/о н/о +16.9 +14.7 87 +18 +18 1017.1 1014.6 +13.2 +22.6
00 24.02 ЮВ 1-2
{5}
н/о н/о +15.9 +14.9 94 +17 +17 1016.4 1013.9
03 24.02 ЮЗ 2-3
{3}
н/о н/о +15.1 +14.4 96 +15 +15 1017.2 1014.7

 

Местоположение метеостанции Экспериментальная ферма (Кувейт): широта 29.29 долгота 47.94 высота над уровнем моря 21 м.

В архиве по умолчанию представлена погода на Экспериментальной ферме за последнюю неделю. Архивные данные за месяц целиком и за предыдущие месяцы, начиная с января 2011 года, Вы можете получить, выбрав интересующий диапазон дат из раскрывающегося списка и нажав кнопку "Ввод!".


*Определитесь, кто Вы:
робот инопланетянин человек

Внимание! Время в таблицах - всемирное. Для получения местного времени необходимо прибавить поправку, которая равна 3 ч.

Смотрите также архив погоды в соседних городах и на ближайших метеорологических станциях:

Погода в Эль-Кувейте (Кувейт) (8 км)
Погода в Кувейт Сити (Кувейт) (12 км)
Погода в Аль-Шуаиба (Кувейт) (17 км)
Погода в Сулайбии (Кувейт) (21 км)
Погода в Эль-Джахра (Кувейт) (26 км)
Погода Остров Файлака (Кувейт) (39 км)
Погода в Минагише (Кувейт) (47 км)
Погода на Метеостанции Jal Aliyah (Кувейт) (50 км)
Погода на Метеостанции Sabriyah (Кувейт) (52 км)
Погода в Порту Juluiah (Кувейт) (57 км)

Пояснения к столбцам:

Ветер - указаны скорость ветра в м/с - средняя за 10 мин, порывы в срок и между сроками (в фигурных скобках) и направление, откуда дует ветер: С - северный, СВ - северо-восточный, В - восточный, ЮВ - юго-восточный, Ю - южный, ЮЗ - юго-западный, З - западный, СЗ - северо-западный.
Видимость - горизонтальная дальность видимости в метрах или километрах. При видимости от 1 до 10 км при отсутствии осадков обычно наблюдается дымка, при ухудшении видимости до 1 км и менее - туман. В сухую погоду видимость может ухудшаться дымом, пылью или мглою.
Явления - указаны атмосферные явления, наблюдавшиеся в срок или в последний час перед сроком; фигурными скобками обозначены явления, наблюдавшиеся между сроками (за 1-3 часа до срока); квадратными скобками обозначены град или гололедные отложения с указанием их диаметра в мм.
Облачность - указаны через наклонную черту общая и нижняя облачность в баллах и высота нижней границы облаков в метрах; квадратными скобками обозначены формы облаков: Ci - перистые, Cs - перисто-слоистые, Cc - перисто-кучевые, Ac - высококучевые, As - высокослоистые, Sc - слоисто-кучевые, Ns - слоисто-дождевые, Cu - кучевые, Cb - кучево-дождевые. Подробнее классификацию облаков см. в Атласе облаков (PDF).
T - Температура воздуха - температура, измеренная на высоте 2 м над землей.
Td - Температура точки росы - температура, при понижении до которой содержащийся в воздухе водяной пар достигнет насыщения.
f - Относительная влажность воздуха - влажноcть воздуха, измеренная на высоте 2 м над землей.
Te - Эффективная температура - температура, которую ощущает одетый по сезону человек в тени. Характеристика душности погоды. При расчете учитывается влияние влажности воздуха и скорости ветра на теплоощущения человека.
Tes - Эффективная температура на солнце - температура, которую ощущает человек, с поправкой на солнечный нагрев. Характеристика знойности погоды. Зависит от высоты солнца над горизонтом, облачности и скорости ветра. Ночью, в пасмурную погоду, а также при ветре 12 м/с и более поправка равна нулю.
P - Атмосферное давление - приведенное к уровню моря атмосферное давление.
Po - Атмосферное давление - измеренное на уровне метеостанции атмосферное давление.
Tmin - Минимальная температура - минимум температуры воздуха на высоте 2 м над землей.
Tmax - Максимальная температура - максимум температуры воздуха на высоте 2 м над землей.
R - Количество осадков - Количество выпавших осадков за период времени, мм. При наведении курсора мыши на число - период времени, за который выпало указанное количество осадков.
R24 - Количество осадков - Количество выпавших осадков за 24 часа, мм.
S - Снежный покров - Высота снежного покрова, см. При наведении курсора мыши на число - состояние снежного покрова и степень покрытия местности в баллах.